Regional Weather Roundup
Issued by NWS

Home | Current Version | Previous Version | Graphics & Text | Print | Product List | Glossary On
Versions: 1 2 3 4 5 6 7 8 9 10 11 12 13 14 15 16 17 18 19 20 21 22 23 24 25 26 27 28 29 30 31 32 33 34 35 36 37 38 39 40 41 42 43 44 45 46 47 48 49 50
000
ASUS43 KBIS 301410
RWRND

NORTH DAKOTA REGIONAL WEATHER ROUNDUP
NATIONAL WEATHER SERVICE BISMARCK ND
900 AM CDT SAT MAY 30 2015

NOTE: "FAIR" INDICATES FEW OR NO CLOUDS BELOW 12,000 FEET WITH NO
SIGNIFICANT WEATHER AND/OR OBSTRUCTIONS TO VISIBILITY.


NDZ001>003-009>011-017-301500-
NORTHWEST NORTH DAKOTA

CITY           SKY/WX    TMP DP  RH WIND       PRES   REMARKS
WILLISTON      MOSUNNY   45  34  65 SE13      30.33S
MINOT          PTSUNNY   40  29  64 SE14      30.40S
MINOT AFB      PTSUNNY   42  35  77 SE13      30.40S
$$

NDZ018>021-031>035-040>046-301500-
SOUTHWEST NORTH DAKOTA

CITY           SKY/WX    TMP DP  RH WIND       PRES   REMARKS
BISMARCK       MOSUNNY   42  29  59 E10       30.42R
DICKINSON      SUNNY     44  35  70 SE16      30.30F
GARRISON         N/A     42  30  62 SE15      30.39R
HETTINGER ARPT SUNNY     43  37  79 E15       30.33R
$$

NDZ004>008-012>016-024-026-027-054-301500-
NORTHEAST NORTH DAKOTA

CITY           SKY/WX    TMP DP  RH WIND       PRES   REMARKS
GRAND FORKS    MOSUNNY   41  26  55 N18       30.42R
GRND FRKS AFB  SUNNY     41  25  54 NE13      30.42R
DEVILS LAKE    SUNNY     39  21  48 NE14G20   30.42S
$$

NDZ022-023-025-028>030-036>039-047>053-301500-
SOUTHEAST NORTH DAKOTA

CITY           SKY/WX    TMP DP  RH WIND       PRES   REMARKS
FARGO          SUNNY     41  30  65 N15       30.38R
JAMESTOWN      SUNNY     40  27  59 NE12      30.40R
$$




USA.gov is the U.S. government's official web portal to all federal, state and local government web resources and services.